This is the latest recevied weather packets stored in our database for station/object KD5UMO-1. If no packets are shown the sender has not sent any weather packets the latest 10 day(s).
| Time | Temp. | Humidity | Pressure | Rain* | Wind** | Luminosity | Snow |
|---|---|---|---|---|---|---|---|
| 1777595621 | 16.67° C | 74% | 1014.8 hPa | 0 mm | - | 6 W/m² | - |
| 1777595317 | 16.67° C | 73% | 1014.7 hPa | 0 mm | - | 7 W/m² | - |
| 1777595014 | 16.67° C | 72% | 1014.8 hPa | 0 mm | - | 11 W/m² | - |
| 1777594711 | 16.67° C | 72% | 1014.7 hPa | 0 mm | - | 6 W/m² | - |
| 1777594407 | 16.67° C | 72% | 1014.3 hPa | 0 mm | - | 10 W/m² | - |
| 1777594103 | 16.67° C | 72% | 1014.3 hPa | 0 mm | - | 15 W/m² | - |
| 1777593799 | 16.67° C | 72% | 1013.8 hPa | 0 mm | - | 22 W/m² | - |
| 1777593495 | 16.67° C | 72% | 1013.8 hPa | 0 mm | - | 20 W/m² | - |
| 1777593195 | 16.67° C | 72% | 1013.4 hPa | 0 mm | - | 36 W/m² | - |
| 1777592894 | 16.67° C | 72% | 1013.4 hPa | 0 mm | - | 29 W/m² | - |
| 1777592590 | 16.67° C | 72% | 1013.4 hPa | 0 mm | - | 46 W/m² | - |
| 1777592286 | 16.67° C | 72% | 1013.6 hPa | 0 mm | - | 62 W/m² | - |
| 1777591982 | 16.67° C | 72% | 1013.7 hPa | 0 mm | - | 83 W/m² | - |
| 1777591678 | 16.67° C | 72% | 1013.7 hPa | 0 mm | - | 70 W/m² | - |
| 1777591374 | 16.67° C | 72% | 1013.9 hPa | 0 mm | - | 56 W/m² | - |
| 1777591070 | 16.67° C | 73% | 1013.8 hPa | 0 mm | - | 74 W/m² | - |
| 1777590766 | 16.67° C | 72% | 1013.8 hPa | 0 mm | - | 69 W/m² | - |
| 1777590462 | 16.67° C | 72% | 1013.6 hPa | 0 mm | - | 64 W/m² | - |
| 1777590159 | 16.67° C | 72% | 1013.6 hPa | 0 mm | - | 88 W/m² | - |
| 1777589855 | 16.67° C | 72% | 1013.5 hPa | 0 mm | - | 89 W/m² | - |
| 1777589551 | 16.67° C | 72% | 1013.7 hPa | 0 mm | - | 97 W/m² | - |
| 1777589250 | 16.67° C | 72% | 1013.6 hPa | 0 mm | - | 111 W/m² | - |
| 1777588947 | 16.67° C | 72% | 1013.8 hPa | 0 mm | - | 81 W/m² | - |
| 1777588642 | 16.67° C | 73% | 1013.9 hPa | 0 mm | - | 86 W/m² | - |
| 1777588338 | 16.67° C | 73% | 1014 hPa | 0 mm | - | 69 W/m² | - |
* Rain latest hour (hover to see other rain measurements)
** Current wind speed in m/s (hover to see current wind gust speed)